Content
SEND FEEDBACK

Daily
Averages
Monthly
Summary
United States of America

HERMOSA, SOUTH DAKOTA


Home > North America > United States > South Dakota
Elevation: 3300 feet     Latitude: 43 50N     Longitude: 103 11W

WEATHER
 
SELECT A DAY
Number of Records: 200,436;   Date Range: 1/1/95 - 8/30/14
 
SHARE

PRINT THIS DATA

[ ← Previous Day ]
WEATHER ALMANAC - JUNE 19, 2013
[ Next Day → ]
[ °C ]   °F
Weather ElementAverageHighLow
Temperature74.7 °F86 °F (1:52 pm)59 °F (4:52 am)
Dewpoint56.7 °F62.6 °F (11:12 pm)48.9 °F (3:52 am)
Humidity54.8 %75 % (1:52 am)36 % (1:52 pm)
Barometer29.69 in29.81 in (1:52 am)29.55 in (11:52 pm)
Wind Speed17.1 mph38 mph (11:45 pm)
Wind Gust58.7 mph (11:45 pm)
Weather ElementAverage
Visibility10 mi
Wind DirectionSSE (158.1 °)

Weather ElementTotal
Precipitation---
Cooling Degree Days7.5 (Base 65)
Growing Degree Days22.5 (Base 50)
Averaged from 26 records on June 19, 2013
WEATHER CONDITIONS BREAKOUT
WIND DIRECTION BREAKOUT
WEATHER BY HOUR - JUNE 19, 2013
[ °C ]   °F
Local TimeTemperatureDewpointHumidityBarometerVisibilityWind DirectionWind SpeedGust SpeedPrecipitationEventsConditions
1:52 AM60.1 °F52.0 °F75 %29.81 in10.0 miSSE (150°)8.1 mphClear
2:52 AM62.1 °F50.0 °F65 %29.80 in10.0 miSSW (210°)6.9 mphClear
3:52 AM63.0 °F48.9 °F60 %29.79 in10.0 miSouth (190°)9.2 mphClear
4:52 AM59.0 °F48.9 °F69 %29.81 in10.0 miSE (140°)5.8 mphClear
5:52 AM60.1 °F48.9 °F67 %29.80 in10.0 miSSE (160°)8.1 mphClear
6:52 AM64.9 °F52.0 °F63 %29.78 in10.0 miSE (140°)6.9 mphClear
7:52 AM70.0 °F53.1 °F55 %29.77 in10.0 miSSE (160°)16.1 mphClear
8:52 AM72.0 °F55.0 °F55 %29.78 in10.0 miSSE (160°)18.4 mph24.2 mphClear
9:52 AM73.9 °F54.0 °F50 %29.75 in10.0 miSSE (160°)18.4 mph25.3 mphClear
10:52 AM77.0 °F55.9 °F48 %29.73 in10.0 miSSE (150°)13.8 mphClear
11:52 AM81.0 °F57.0 °F44 %29.70 in10.0 miSE (140°)18.4 mph28.8 mphClear
12:52 PM82.9 °F57.0 °F41 %29.68 in10.0 miSE (140°)21.9 mph31.1 mphClear
1:52 PM86.0 °F55.9 °F36 %29.65 in10.0 miSSE (150°)18.4 mph31.1 mphClear
2:52 PM86.0 °F57.0 °F37 %29.64 in10.0 miSouth (170°)26.5 mph38.0 mphPartly Cloudy
3:52 PM86.0 °F59.0 °F40 %29.62 in10.0 miSouth (170°)23.0 mph32.2 mphPartly Cloudy
4:52 PM86.0 °F60.1 °F41 %29.60 in10.0 miSSE (150°)21.9 mph28.8 mphClear
5:52 PM84.9 °F60.1 °F43 %29.59 in10.0 miSouth (180°)20.7 mph28.8 mphClear
6:52 PM81.0 °F61.0 °F50 %29.59 in10.0 miSSE (160°)13.8 mphClear
7:52 PM80.1 °F62.1 °F54 %29.58 in10.0 miSSE (160°)15.0 mphClear
8:52 PM77.0 °F62.1 °F60 %29.60 in10.0 miSSE (160°)12.7 mphClear
9:52 PM73.0 °F62.1 °F68 %29.61 in10.0 miSE (140°)11.5 mphClear
10:52 PM73.9 °F61.0 °F64 %29.60 in10.0 miSE (140°)13.8 mphClear
11:12 PM71.6 °F62.6 °F73 %29.69 in10.0 miSSE (160°)16.1 mph24.2 mphThunderstormClear
11:27 PM73.4 °F62.6 °F69 %29.65 in10.0 miSSE (160°)26.5 mph34.5 mph0.00 inPartly Cloudy
11:45 PM78.8 °F57.2 °F47 %29.65 in10.0 miSSE (160°)38.0 mph58.7 mph0.00 inThunderstormPartly Cloudy
11:52 PM78.1 °F59.0 °F52 %29.55 in10.0 miSSE (150°)33.4 mph52.9 mph0.00 inThunderstormClear
Hourly data recorded from KRAP, located miles away from Hermosa, South Dakota







STORIES FROM OUR PARTNERS